User: anonymous   Login
Location: Anjeux
(47.8815°N, 6.2076°E)
Time: 03:32:56
(UTC+00:00)
Language:

Envisat - Orbit

View from above orbital plane
View from above orbital plane
View from above satellite
View from above satellite

Ground track
Ground track

The orbit data is extracted from the following two-line orbital elements,

1 27386U 02009A   21125.74668000  .00000039  00000-0  26374-4 0  9997
2 27386  98.1482 121.9870 0001335  86.0401  87.1526 14.38024175  4939
Epoch (UTC): 05 May 2021 17:55:13
Eccentricity: 0.0001335
inclination: 98.1482°
perigee height: 764 km
apogee height: 766 km
right ascension of ascending node: 121.9870°
argument of perigee: 86.0401°
revolutions per day: 14.38024175
mean anomaly at epoch: 87.1526°
orbit number at epoch: 493

The dashed part of the orbit path shows where the satellite is in the earth's shadow,  

DLR